Location: Poughquag
(41.6090°N, 73.6820°W)
Time: 15:00:33
(UTC-04:00)

Vanguard 3 - Pass Details

Date: 30 May 2020
Orbit: 510 x 3261 km, 33.3° (Epoch: 05 July)

Event Time Altitude Azimuth Distance (km) Brightness Sun altitude
Exits shadow 01:41:09 22° 156° (SSE) 4,697 10.5 -25.5°
Maximum altitude 01:43:09 23° 147° (SSE) 4,545 10.5 -25.5°
Drops below altitude 10° 01:53:00 10° 103° (ESE) 4,740 11.1 -25.0°
Sets 01:57:12 0° 89° (E) 5,317 11.5 -24.8°
